Location: The D'Auria's Ocala Star Observatory
(29.0276°N, 82.1742°W)
Time: 12:53:11
(UTC-04:00)

Daily predictions for brighter satellites

Satellite Brightness Start Highest point End
(mag) Time Altitude Azimuth Time Altitude Azimuth Time Altitude Azimuth
ATLAS CENTAUR R/B 3.4 19:24:20 10° SW 19:27:55 61° NW 19:38:01 10° NE
Cosmos 724 4.4 19:28:05 10° SSW 19:33:57 87° WNW 19:40:00 10° NNE
USA 215 3.6 19:28:10 10° NE 19:34:25 47° SE 19:40:38 10° SSW
Cosmos 1758 3.7 19:36:53 10° SSE 19:40:45 43° E 19:44:37 10° NNE
Cosmos 1464 Rocket 4.0 19:35:06 10° S 19:41:19 72° E 19:47:29 10° N
Cosmos 2034 Rocket 4.2 19:35:33 10° SSE 19:41:33 51° E 19:47:37 10° NNE
OAO 3 Rocket 4.0 19:37:34 10° WNW 19:42:01 40° N 19:46:33 10° ENE
SL-16 R/B 4.1 19:40:01 10° SW 19:45:08 34° WNW 19:50:17 10° N
Cosmos 1378 3.1 19:48:33 10° N 19:52:18 89° ESE 19:56:01 10° S
Cosmos 1408 Rocket 3.7 19:48:50 10° N 19:53:01 47° E 19:57:09 10° SSE
Helios 1A 4.3 19:54:35 10° ESE 19:57:44 21° ENE 20:00:54 10° NNE
IDEFIX/ARIANE 42P 4.2 19:53:46 10° SSW 19:58:36 39° W 20:03:28 10° NNW
Timation 1 Rocket 4.4 19:59:53 10° NNW 20:05:52 89° WSW 20:11:50 10° SSE
Atlas Centaur 2 3.7 19:59:23 10° W 20:07:34 52° SSW 20:15:29 10° SE
AVUM R/B 3.8 20:07:53 10° S 20:10:28 28° ESE 20:10:57 26° E
Meteor 1-28 Rocket 3.6 20:07:25 10° N 20:11:06 64° WNW 20:14:46 10° SSW
Meteosat 1 Rocket2 4.1 20:03:28 10° WSW 20:11:50 71° S 20:15:43 21° E
Intelsat 5-2 Rocket 4.3 20:02:09 10° WSW 20:12:21 51° S 20:15:02 20° ESE
Meteor 1-29 3.2 20:09:27 10° NNE 20:12:48 43° E 20:16:07 10° S
GPS 2-04 Rocket1 3.7 20:09:43 10° WNW 20:12:50 31° N 20:15:05 16° NE
NOAA 12 4.0 20:08:07 10° SSE 20:13:20 71° ENE 20:18:35 10° N
SAR-Lupe-1 4.0 20:11:17 10° SSE 20:14:49 90° WNW 20:18:23 10° NNW
SEDSat Delta rocket 4.1 20:08:24 10° WNW 20:14:56 78° N 20:19:42 21° E
Resurs 1-3 4.2 20:15:22 16° SE 20:18:17 33° ENE 20:22:13 10° N
Cosmos 1805 4.1 20:14:58 10° SSW 20:18:48 53° W 20:22:39 10° N
GPS 2-12 Rocket1 4.5 20:15:51 10° SW 20:19:32 25° S 20:21:41 18° SE
ASTEX 1 3.9 20:16:43 10° NNE 20:21:12 36° E 20:25:40 10° SSE
ALOS 3.2 20:20:14 24° E 20:21:13 26° ENE 20:25:05 10° NNE
Cosmos 2251 Rocket 4.2 20:18:26 10° SSE 20:22:56 30° E 20:27:25 10° NE
Cosmos 1743 Rocket 3.7 20:19:34 10° N 20:23:51 49° E 20:28:04 10° SSE
Cosmos 1452 Rocket 3.5 20:18:39 10° NNW 20:23:55 86° WSW 20:29:09 10° SSE
Cosmos 1943 3.1 20:19:54 10° S 20:25:30 72° ESE 20:31:07 10° NNE
Resurs 01 Rocket 1.6 20:21:58 10° SSE 20:26:19 57° ENE 20:30:42 10° N
CENTAUR R/B 2.5 20:22:08 10° SSW 20:27:57 82° WNW 20:34:28 10° NNE
Cosmos 2369 Rocket 3.2 20:26:00 10° N 20:30:39 25° ENE 20:31:02 25° ENE
Gbstr 26 Del rocket 4.4 20:27:00 10° WSW 20:30:54 37° NW 20:35:35 10° NNE
Cosmos 1953 4.1 20:28:51 10° SSW 20:32:28 33° W 20:36:06 10° NNW
Helios 1B rocket 2.6 20:28:52 10° N 20:32:58 71° WNW 20:37:03 10° SSW
ISS -0.3 20:33:25 10° NW 20:34:32 11° NW 20:35:39 10° NNW
Cosmos 1733 3.1 20:33:18 10° S 20:37:08 68° E 20:40:59 10° NNE
Delta 168 3.6 20:33:10 10° W 20:37:20 56° S 20:39:37 33° ESE
Cosmos 1420 Rocket 3.9 20:37:47 10° NNW 20:43:06 76° ENE 20:46:51 20° SSE
Cosmos 1470 2.9 20:40:25 10° S 20:44:17 73° W 20:48:10 10° N
Palapa B4 Rocket 4.4 20:42:51 10° SW 20:45:45 21° S 20:45:50 21° S
BREEZE-M TANK 2.9 20:42:06 10° WNW 20:47:50 55° SW 20:48:39 41° S
Spot 2 Rocket 3.6 20:45:09 10° S 20:50:10 75° WSW 20:55:13 10° NNW
Cosmos 1674 2.5 20:47:40 10° N 20:51:28 80° NE 20:51:28 80° NE
Nadezhda 4 Rocket 4.0 20:45:23 10° N 20:51:38 84° W 20:57:48 10° S
BREEZE-M DEB (TANK) 3.9 20:39:44 10° NW 20:56:08 78° SW 20:58:16 38° SSE
ASTRO E2 3.0 20:53:11 10° W 20:57:04 59° SSW 20:57:04 59° SSW
Cosmos 1092 Rocket 3.8 20:55:28 10° N 21:01:40 84° E 21:07:18 13° S
Cosmos 2142 Rocket 4.4 20:57:19 10° S 21:03:40 86° E 21:10:05 10° N
OAO 1 4.3 21:01:06 10° WSW 21:06:37 80° SSE 21:07:01 75° ESE
Meteor 1-16 Rocket 3.9 21:02:40 10° S 21:07:58 81° E 21:13:17 10° N
Cosmos 1634 Rocket 4.1 21:04:27 10° S 21:10:42 77° W 21:16:55 10° N
Cosmos 2026 Rocket 4.3 21:06:42 10° N 21:11:21 45° NE 21:11:21 45° NE
USA 215 4.4 21:11:19 10° NNE 21:17:14 38° NW 21:23:08 10° WSW
OAO 3 Rocket 4.0 21:21:07 10° WNW 21:24:38 48° NW 21:24:38 48° NW
SeaSat 1 4.2 21:33:03 23° SW 21:33:03 23° SW 21:34:54 10° SSW
FENGYUN 3A 4.3 21:32:29 44° SW 21:33:38 51° W 21:38:52 10° NNW
Cosmos 2195 Rocket 4.5 21:28:37 10° N 21:34:50 82° WNW 21:34:50 82° WNW
Cosmos 1943 Rocket 4.3 22:01:26 10° NNW 22:02:44 18° NNW 22:02:44 18° NNW
Cosmos 2369 Rocket 4.0 22:09:36 10° NW 22:12:52 27° WNW 22:12:52 27° WNW
